チュリュモフ-ゲラシメンコ彗星

67P/Churyumov-Gerasimenko (1996)

English version
Home page
Total 6,336 html files since Dec. 4, 1995
Updated on September 29, 2004

---------------------------------------------------------------------

・ プロフィール

・ 軌道要素

   The following improved orbital elements, by Kenji Muraoka, are 
  from 367 observations  1975 Sept.  9 to 1996 Apr. 21, including 
  9 planets & 5 minor planets perturbations and non-gravitational 
  effect of style II.   The mean residual is +/- 0.78 arc seconds.

      Epoch  =  1995 Dec. 29.0  TT       JDT = 2450080.5
          T  =  1996 Jan. 17.65642       +/- 0.00058 (m.e.) TT
       Peri. =   11.38689                +/- 0.00012
       Node  =   51.00620                +/- 0.00006   (2000.0)
       Incl. =    7.11334                +/- 0.00001
          q  =    1.3000340              +/- 0.0000003 AU
          e  =    0.6301923              +/- 0.0000001
          a  =    3.5154323              +/- 0.0000004 AU
          n  =    0.14953263             +/- 0.00000002
          P  =    6.591                  +/- 0.0000010  years
         A1  =   +0.073                  +/- 0.008
         A2  =   +0.00960                +/- 0.00023

・ 星図

・ 1995年 4月 3日〜1996年 4月17日
・ 1996年 3月28日〜1997年 5月22日

・ 光度変化

        m1 = 9.0 + 5 logΔ + 15 log r(t - 40)

---------------------------------------------------------------------

軌道要素は村岡健治氏の計算によるものです。
星図は StellaNavigator Ver.2.0 for Windows (アストロアーツ 編著 / アスキー出版局刊) で作成したものです。
光度グラフはComet for Windowsで作成したものです。

---------------------------------------------------------------------

Copyright(C) 1995-2008 Seiichi Yoshida (comet@aerith.net). All rights reserved.